#datetime,building,power
2023-04-26T00:00:00,mfh,41.58
2023-04-26T00:01:00,mfh,40.91
2023-04-26T00:02:00,mfh,40.43
2023-04-26T00:03:00,mfh,39.79
2023-04-26T00:04:00,mfh,39.79
2023-04-26T00:05:00,mfh,40.49
2023-04-26T00:06:00,mfh,40.64
2023-04-26T00:07:00,mfh,40.73
2023-04-26T00:08:00,mfh,40.45
2023-04-26T00:09:00,mfh,41.32
2023-04-26T00:10:00,mfh,40.53
2023-04-26T00:11:00,mfh,40.53
2023-04-26T00:12:00,mfh,40.57
2023-04-26T00:13:00,mfh,41.28
2023-04-26T00:14:00,mfh,40.54
2023-04-26T00:15:00,mfh,40.54
2023-04-26T00:16:00,mfh,40.61
2023-04-26T00:17:00,mfh,40.68
2023-04-26T00:18:00,mfh,40.65
2023-04-26T00:19:00,mfh,41.49
2023-04-26T00:20:00,mfh,41.52
2023-04-26T00:21:00,mfh,41.48
2023-04-26T00:22:00,mfh,42.11
2023-04-26T00:23:00,mfh,41.94
2023-04-26T00:24:00,mfh,41.98
2023-04-26T00:25:00,mfh,40.35
2023-04-26T00:26:00,mfh,41.11
2023-04-26T00:27:00,mfh,39.76
2023-04-26T00:28:00,mfh,39.83
2023-04-26T00:29:00,mfh,39.88
2023-04-26T00:30:00,mfh,39.97
2023-04-26T00:31:00,mfh,40.65
2023-04-26T00:32:00,mfh,40.58
2023-04-26T00:33:00,mfh,40.57
2023-04-26T00:34:00,mfh,40.54
2023-04-26T00:35:00,mfh,40.51
2023-04-26T00:36:00,mfh,40.53
2023-04-26T00:37:00,mfh,40.69
2023-04-26T00:38:00,mfh,40.04
2023-04-26T00:39:00,mfh,39.99
2023-04-26T00:40:00,mfh,40.03
2023-04-26T00:41:00,mfh,41.69
2023-04-26T00:42:00,mfh,40.77
2023-04-26T00:43:00,mfh,40.98
2023-04-26T00:44:00,mfh,40.84
2023-04-26T00:45:00,mfh,41.24
2023-04-26T00:46:00,mfh,40.29
2023-04-26T00:47:00,mfh,40.73
2023-04-26T00:48:00,mfh,40.12
2023-04-26T00:49:00,mfh,46.05
2023-04-26T00:50:00,mfh,59.54
2023-04-26T00:51:00,mfh,60.24
2023-04-26T00:52:00,mfh,67.40
2023-04-26T00:53:00,mfh,67.53
2023-04-26T00:54:00,mfh,66.99
2023-04-26T00:55:00,mfh,65.44
2023-04-26T00:56:00,mfh,65.00
2023-04-26T00:57:00,mfh,64.75
2023-04-26T00:58:00,mfh,64.34
2023-04-26T00:59:00,mfh,64.56
2023-04-26T01:00:00,mfh,64.25
2023-04-26T01:01:00,mfh,63.87
2023-04-26T01:02:00,mfh,63.81
2023-04-26T01:03:00,mfh,63.82
2023-04-26T01:04:00,mfh,58.32
2023-04-26T01:05:00,mfh,57.57
2023-04-26T01:06:00,mfh,57.96
2023-04-26T01:07:00,mfh,57.75
2023-04-26T01:08:00,mfh,52.51
2023-04-26T01:09:00,mfh,46.14
2023-04-26T01:10:00,mfh,39.33
2023-04-26T01:11:00,mfh,39.34
2023-04-26T01:12:00,mfh,39.49
2023-04-26T01:13:00,mfh,39.48
2023-04-26T01:14:00,mfh,38.91
2023-04-26T01:15:00,mfh,39.68
2023-04-26T01:16:00,mfh,39.10
2023-04-26T01:17:00,mfh,39.88
2023-04-26T01:18:00,mfh,40.39
2023-04-26T01:19:00,mfh,40.00
2023-04-26T01:20:00,mfh,40.10
2023-04-26T01:21:00,mfh,40.16
2023-04-26T01:22:00,mfh,39.62
2023-04-26T01:23:00,mfh,39.54
2023-04-26T01:24:00,mfh,39.58
2023-04-26T01:25:00,mfh,39.91
2023-04-26T01:26:00,mfh,40.23
2023-04-26T01:27:00,mfh,40.17
2023-04-26T01:28:00,mfh,40.26
2023-04-26T01:29:00,mfh,40.12
2023-04-26T01:30:00,mfh,40.13
2023-04-26T01:31:00,mfh,40.53
2023-04-26T01:32:00,mfh,39.40
2023-04-26T01:33:00,mfh,39.42
2023-04-26T01:34:00,mfh,39.37
2023-04-26T01:35:00,mfh,39.62
2023-04-26T01:36:00,mfh,40.63
2023-04-26T01:37:00,mfh,40.27
2023-04-26T01:38:00,mfh,40.18
2023-04-26T01:39:00,mfh,40.18
2023-04-26T01:40:00,mfh,40.26
2023-04-26T01:41:00,mfh,39.64
2023-04-26T01:42:00,mfh,39.63
2023-04-26T01:43:00,mfh,39.66
2023-04-26T01:44:00,mfh,40.70
2023-04-26T01:45:00,mfh,40.26
2023-04-26T01:46:00,mfh,40.42
2023-04-26T01:47:00,mfh,40.52
2023-04-26T01:48:00,mfh,40.57
2023-04-26T01:49:00,mfh,42.13
2023-04-26T01:50:00,mfh,42.13
2023-04-26T01:51:00,mfh,41.48
2023-04-26T01:52:00,mfh,41.63
2023-04-26T01:53:00,mfh,41.62
2023-04-26T01:54:00,mfh,42.95
2023-04-26T01:55:00,mfh,43.09
2023-04-26T01:56:00,mfh,40.75
2023-04-26T01:57:00,mfh,40.82
2023-04-26T01:58:00,mfh,40.75
2023-04-26T01:59:00,mfh,39.96
2023-04-26T02:00:00,mfh,40.06
2023-04-26T02:01:00,mfh,40.03
2023-04-26T02:02:00,mfh,39.95
2023-04-26T02:03:00,mfh,41.04
2023-04-26T02:04:00,mfh,40.60
2023-04-26T02:05:00,mfh,40.36
2023-04-26T02:06:00,mfh,40.37
2023-04-26T02:07:00,mfh,40.38
2023-04-26T02:08:00,mfh,40.38
2023-04-26T02:09:00,mfh,39.62
2023-04-26T02:10:00,mfh,39.51
2023-04-26T02:11:00,mfh,39.61
2023-04-26T02:12:00,mfh,40.24
2023-04-26T02:13:00,mfh,41.36
2023-04-26T02:14:00,mfh,40.38
2023-04-26T02:15:00,mfh,40.97
2023-04-26T02:16:00,mfh,40.38
2023-04-26T02:17:00,mfh,40.45
2023-04-26T02:18:00,mfh,39.75
2023-04-26T02:19:00,mfh,40.34
2023-04-26T02:20:00,mfh,40.24
2023-04-26T02:21:00,mfh,40.34
2023-04-26T02:22:00,mfh,40.46
2023-04-26T02:23:00,mfh,40.34
2023-04-26T02:24:00,mfh,40.30
2023-04-26T02:25:00,mfh,40.32
2023-04-26T02:26:00,mfh,40.72
2023-04-26T02:27:00,mfh,39.61
2023-04-26T02:28:00,mfh,39.70
2023-04-26T02:29:00,mfh,39.73
2023-04-26T02:30:00,mfh,40.29
2023-04-26T02:31:00,mfh,40.31
2023-04-26T02:32:00,mfh,40.27
2023-04-26T02:33:00,mfh,41.00
2023-04-26T02:34:00,mfh,40.37
2023-04-26T02:35:00,mfh,40.75
2023-04-26T02:36:00,mfh,39.67
2023-04-26T02:37:00,mfh,39.59
2023-04-26T02:38:00,mfh,39.59
2023-04-26T02:39:00,mfh,40.17
2023-04-26T02:40:00,mfh,40.24
2023-04-26T02:41:00,mfh,40.47
2023-04-26T02:42:00,mfh,40.39
2023-04-26T02:43:00,mfh,40.43
2023-04-26T02:44:00,mfh,40.59
2023-04-26T02:45:00,mfh,40.22
2023-04-26T02:46:00,mfh,39.82
2023-04-26T02:47:00,mfh,40.69
2023-04-26T02:48:00,mfh,40.55
2023-04-26T02:49:00,mfh,40.51
2023-04-26T02:50:00,mfh,41.03
2023-04-26T02:51:00,mfh,40.74
2023-04-26T02:52:00,mfh,42.00
2023-04-26T02:53:00,mfh,41.51
2023-04-26T02:54:00,mfh,40.98
2023-04-26T02:55:00,mfh,40.98
2023-04-26T02:56:00,mfh,40.97
2023-04-26T02:57:00,mfh,40.68
2023-04-26T02:58:00,mfh,40.73
2023-04-26T02:59:00,mfh,40.95
2023-04-26T03:00:00,mfh,40.70
2023-04-26T03:01:00,mfh,40.79
2023-04-26T03:02:00,mfh,40.91
2023-04-26T03:03:00,mfh,39.99
2023-04-26T03:04:00,mfh,39.95
2023-04-26T03:05:00,mfh,39.92
2023-04-26T03:06:00,mfh,40.59
2023-04-26T03:07:00,mfh,40.71
2023-04-26T03:08:00,mfh,41.09
2023-04-26T03:09:00,mfh,40.59
2023-04-26T03:10:00,mfh,40.54
2023-04-26T03:11:00,mfh,40.66
2023-04-26T03:12:00,mfh,40.12
2023-04-26T03:13:00,mfh,40.17
2023-04-26T03:14:00,mfh,40.02
2023-04-26T03:15:00,mfh,40.59
2023-04-26T03:16:00,mfh,40.55
2023-04-26T03:17:00,mfh,40.62
2023-04-26T03:18:00,mfh,40.65
2023-04-26T03:19:00,mfh,40.66
2023-04-26T03:20:00,mfh,41.25
2023-04-26T03:21:00,mfh,42.86
2023-04-26T03:22:00,mfh,41.87
2023-04-26T03:23:00,mfh,41.73
2023-04-26T03:24:00,mfh,41.92
2023-04-26T03:25:00,mfh,42.43
2023-04-26T03:26:00,mfh,42.41
2023-04-26T03:27:00,mfh,40.66
2023-04-26T03:28:00,mfh,40.55
2023-04-26T03:29:00,mfh,40.67
2023-04-26T03:30:00,mfh,39.91
2023-04-26T03:31:00,mfh,40.20
2023-04-26T03:32:00,mfh,40.62
2023-04-26T03:33:00,mfh,39.88
2023-04-26T03:34:00,mfh,40.73
2023-04-26T03:35:00,mfh,40.77
2023-04-26T03:36:00,mfh,41.05
2023-04-26T03:37:00,mfh,40.99
2023-04-26T03:38:00,mfh,40.64
2023-04-26T03:39:00,mfh,40.65
2023-04-26T03:40:00,mfh,39.94
2023-04-26T03:41:00,mfh,40.02
2023-04-26T03:42:00,mfh,39.87
2023-04-26T03:43:00,mfh,40.51
2023-04-26T03:44:00,mfh,40.51
2023-04-26T03:45:00,mfh,40.59
2023-04-26T03:46:00,mfh,40.67
2023-04-26T03:47:00,mfh,40.80
2023-04-26T03:48:00,mfh,40.68
2023-04-26T03:49:00,mfh,40.24
2023-04-26T03:50:00,mfh,40.17
2023-04-26T03:51:00,mfh,40.45
2023-04-26T03:52:00,mfh,41.02
2023-04-26T03:53:00,mfh,41.00
2023-04-26T03:54:00,mfh,41.11
2023-04-26T03:55:00,mfh,40.96
2023-04-26T03:56:00,mfh,41.07
2023-04-26T03:57:00,mfh,41.83
2023-04-26T03:58:00,mfh,40.94
2023-04-26T03:59:00,mfh,40.79
2023-04-26T04:00:00,mfh,40.75
2023-04-26T04:01:00,mfh,41.45
2023-04-26T04:02:00,mfh,41.67
2023-04-26T04:03:00,mfh,42.09
2023-04-26T04:04:00,mfh,41.48
2023-04-26T04:05:00,mfh,41.50
2023-04-26T04:06:00,mfh,41.58
2023-04-26T04:07:00,mfh,40.86
2023-04-26T04:08:00,mfh,40.83
2023-04-26T04:09:00,mfh,41.22
2023-04-26T04:10:00,mfh,41.34
2023-04-26T04:11:00,mfh,41.45
2023-04-26T04:12:00,mfh,41.22
2023-04-26T04:13:00,mfh,41.27
2023-04-26T04:14:00,mfh,41.36
2023-04-26T04:15:00,mfh,41.38
2023-04-26T04:16:00,mfh,40.76
2023-04-26T04:17:00,mfh,40.66
2023-04-26T04:18:00,mfh,40.75
2023-04-26T04:19:00,mfh,40.80
2023-04-26T04:20:00,mfh,41.69
2023-04-26T04:21:00,mfh,41.44
2023-04-26T04:22:00,mfh,41.55
2023-04-26T04:23:00,mfh,41.64
2023-04-26T04:24:00,mfh,42.62
2023-04-26T04:25:00,mfh,49.64
2023-04-26T04:26:00,mfh,50.69
2023-04-26T04:27:00,mfh,50.92
2023-04-26T04:28:00,mfh,51.62
2023-04-26T04:29:00,mfh,51.65
2023-04-26T04:30:00,mfh,51.49
2023-04-26T04:31:00,mfh,51.83
2023-04-26T04:32:00,mfh,51.51
2023-04-26T04:33:00,mfh,51.33
2023-04-26T04:34:00,mfh,50.52
2023-04-26T04:35:00,mfh,50.51
2023-04-26T04:36:00,mfh,50.92
2023-04-26T04:37:00,mfh,51.09
2023-04-26T04:38:00,mfh,51.12
2023-04-26T04:39:00,mfh,51.12
2023-04-26T04:40:00,mfh,51.16
2023-04-26T04:41:00,mfh,51.40
2023-04-26T04:42:00,mfh,51.31
2023-04-26T04:43:00,mfh,50.75
2023-04-26T04:44:00,mfh,50.57
2023-04-26T04:45:00,mfh,50.54
2023-04-26T04:46:00,mfh,50.63
2023-04-26T04:47:00,mfh,51.22
2023-04-26T04:48:00,mfh,51.25
2023-04-26T04:49:00,mfh,51.33
2023-04-26T04:50:00,mfh,51.35
2023-04-26T04:51:00,mfh,51.69
2023-04-26T04:52:00,mfh,52.74
2023-04-26T04:53:00,mfh,52.31
2023-04-26T04:54:00,mfh,52.33
2023-04-26T04:55:00,mfh,52.70
2023-04-26T04:56:00,mfh,52.89
2023-04-26T04:57:00,mfh,52.84
2023-04-26T04:58:00,mfh,51.25
2023-04-26T04:59:00,mfh,51.73
2023-04-26T05:00:00,mfh,51.77
2023-04-26T05:01:00,mfh,70.55
2023-04-26T05:02:00,mfh,72.92
2023-04-26T05:03:00,mfh,74.36
2023-04-26T05:04:00,mfh,72.72
2023-04-26T05:05:00,mfh,73.51
2023-04-26T05:06:00,mfh,73.32
2023-04-26T05:07:00,mfh,72.76
2023-04-26T05:08:00,mfh,72.59
2023-04-26T05:09:00,mfh,72.42
2023-04-26T05:10:00,mfh,71.59
2023-04-26T05:11:00,mfh,71.88
2023-04-26T05:12:00,mfh,72.60
2023-04-26T05:13:00,mfh,72.54
2023-04-26T05:14:00,mfh,74.46
2023-04-26T05:15:00,mfh,73.54
2023-04-26T05:16:00,mfh,73.71
2023-04-26T05:17:00,mfh,73.70
2023-04-26T05:18:00,mfh,73.78
2023-04-26T05:19:00,mfh,74.49
2023-04-26T05:20:00,mfh,73.94
2023-04-26T05:21:00,mfh,73.76
2023-04-26T05:22:00,mfh,73.82
2023-04-26T05:23:00,mfh,74.46
2023-04-26T05:24:00,mfh,73.64
2023-04-26T05:25:00,mfh,73.56
2023-04-26T05:26:00,mfh,73.52
2023-04-26T05:27:00,mfh,73.43
2023-04-26T05:28:00,mfh,72.75
2023-04-26T05:29:00,mfh,73.57
2023-04-26T05:30:00,mfh,73.06
2023-04-26T05:31:00,mfh,72.60
2023-04-26T05:32:00,mfh,73.18
2023-04-26T05:33:00,mfh,73.19
2023-04-26T05:34:00,mfh,73.39
2023-04-26T05:35:00,mfh,73.55
2023-04-26T05:36:00,mfh,73.50
2023-04-26T05:37:00,mfh,73.28
2023-04-26T05:38:00,mfh,72.65
2023-04-26T05:39:00,mfh,72.46
2023-04-26T05:40:00,mfh,73.21
2023-04-26T05:41:00,mfh,73.15
2023-04-26T05:42:00,mfh,73.47
2023-04-26T05:43:00,mfh,73.35
2023-04-26T05:44:00,mfh,73.23
2023-04-26T05:45:00,mfh,73.18
2023-04-26T05:46:00,mfh,72.69
2023-04-26T05:47:00,mfh,71.99
2023-04-26T05:48:00,mfh,72.52
2023-04-26T05:49:00,mfh,72.02
2023-04-26T05:50:00,mfh,72.49
2023-04-26T05:51:00,mfh,72.64
2023-04-26T05:52:00,mfh,72.47
2023-04-26T05:53:00,mfh,72.53
2023-04-26T05:54:00,mfh,72.67
2023-04-26T05:55:00,mfh,73.44
2023-04-26T05:56:00,mfh,72.05
2023-04-26T05:57:00,mfh,72.09
2023-04-26T05:58:00,mfh,72.65
2023-04-26T05:59:00,mfh,73.49
2023-04-26T06:00:00,mfh,72.67
2023-04-26T06:01:00,mfh,76.97
2023-04-26T06:02:00,mfh,77.15
2023-04-26T06:03:00,mfh,77.88
2023-04-26T06:04:00,mfh,77.12
2023-04-26T06:05:00,mfh,77.31
2023-04-26T06:06:00,mfh,77.22
2023-04-26T06:07:00,mfh,76.60
2023-04-26T06:08:00,mfh,76.58
2023-04-26T06:09:00,mfh,76.91
2023-04-26T06:10:00,mfh,77.63
2023-04-26T06:11:00,mfh,77.78
2023-04-26T06:12:00,mfh,77.78
2023-04-26T06:13:00,mfh,78.25
2023-04-26T06:14:00,mfh,77.95
2023-04-26T06:15:00,mfh,78.49
2023-04-26T06:16:00,mfh,77.82
2023-04-26T06:17:00,mfh,77.92
2023-04-26T06:18:00,mfh,78.19
2023-04-26T06:19:00,mfh,78.36
2023-04-26T06:20:00,mfh,78.84
2023-04-26T06:21:00,mfh,77.31
2023-04-26T06:22:00,mfh,77.41
2023-04-26T06:23:00,mfh,78.68
2023-04-26T06:24:00,mfh,78.46
2023-04-26T06:25:00,mfh,78.83
2023-04-26T06:26:00,mfh,79.48
2023-04-26T06:27:00,mfh,79.48
2023-04-26T06:28:00,mfh,79.93
2023-04-26T06:29:00,mfh,79.09
2023-04-26T06:30:00,mfh,80.15
2023-04-26T06:31:00,mfh,80.15
2023-04-26T06:32:00,mfh,79.76
2023-04-26T06:33:00,mfh,79.56
2023-04-26T06:34:00,mfh,78.80
2023-04-26T06:35:00,mfh,79.43
2023-04-26T06:36:00,mfh,77.98
2023-04-26T06:37:00,mfh,78.51
2023-04-26T06:38:00,mfh,79.09
2023-04-26T06:39:00,mfh,78.96
2023-04-26T06:40:00,mfh,79.11
2023-04-26T06:41:00,mfh,79.53
2023-04-26T06:42:00,mfh,79.03
2023-04-26T06:43:00,mfh,79.88
2023-04-26T06:44:00,mfh,80.23
2023-04-26T06:45:00,mfh,80.21
2023-04-26T06:46:00,mfh,79.88
2023-04-26T06:47:00,mfh,79.83
2023-04-26T06:48:00,mfh,80.86
2023-04-26T06:49:00,mfh,79.57
2023-04-26T06:50:00,mfh,79.76
2023-04-26T06:51:00,mfh,79.82
2023-04-26T06:52:00,mfh,79.84
2023-04-26T06:53:00,mfh,79.81
2023-04-26T06:54:00,mfh,79.87
2023-04-26T06:55:00,mfh,79.99
2023-04-26T06:56:00,mfh,80.51
2023-04-26T06:57:00,mfh,80.39
2023-04-26T06:58:00,mfh,80.42
2023-04-26T06:59:00,mfh,79.87
2023-04-26T07:00:00,mfh,79.38
2023-04-26T07:01:00,mfh,84.47
2023-04-26T07:02:00,mfh,84.71
2023-04-26T07:03:00,mfh,84.95
2023-04-26T07:04:00,mfh,84.51
2023-04-26T07:05:00,mfh,84.92
2023-04-26T07:06:00,mfh,84.16
2023-04-26T07:07:00,mfh,83.92
2023-04-26T07:08:00,mfh,83.52
2023-04-26T07:09:00,mfh,83.59
2023-04-26T07:10:00,mfh,83.29
2023-04-26T07:11:00,mfh,83.53
2023-04-26T07:12:00,mfh,82.89
2023-04-26T07:13:00,mfh,77.73
2023-04-26T07:14:00,mfh,77.39
2023-04-26T07:15:00,mfh,78.10
2023-04-26T07:16:00,mfh,77.66
2023-04-26T07:17:00,mfh,77.38
2023-04-26T07:18:00,mfh,76.87
2023-04-26T07:19:00,mfh,76.96
2023-04-26T07:20:00,mfh,76.93
2023-04-26T07:21:00,mfh,76.68
2023-04-26T07:22:00,mfh,76.67
2023-04-26T07:23:00,mfh,76.69
2023-04-26T07:24:00,mfh,76.66
2023-04-26T07:25:00,mfh,76.22
2023-04-26T07:26:00,mfh,75.90
2023-04-26T07:27:00,mfh,76.52
2023-04-26T07:28:00,mfh,76.63
2023-04-26T07:29:00,mfh,76.70
2023-04-26T07:30:00,mfh,76.76
2023-04-26T07:31:00,mfh,76.71
2023-04-26T07:32:00,mfh,76.94
2023-04-26T07:33:00,mfh,76.82
2023-04-26T07:34:00,mfh,76.96
2023-04-26T07:35:00,mfh,76.51
2023-04-26T07:36:00,mfh,76.48
2023-04-26T07:37:00,mfh,76.74
2023-04-26T07:38:00,mfh,76.79
2023-04-26T07:39:00,mfh,76.33
2023-04-26T07:40:00,mfh,76.34
2023-04-26T07:41:00,mfh,77.16
2023-04-26T07:42:00,mfh,77.04
2023-04-26T07:43:00,mfh,76.92
2023-04-26T07:44:00,mfh,76.84
2023-04-26T07:45:00,mfh,76.97
2023-04-26T07:46:00,mfh,77.53
2023-04-26T07:47:00,mfh,77.20
2023-04-26T07:48:00,mfh,77.39
2023-04-26T07:49:00,mfh,77.16
2023-04-26T07:50:00,mfh,76.82
2023-04-26T07:51:00,mfh,79.04
2023-04-26T07:52:00,mfh,78.96
2023-04-26T07:53:00,mfh,78.90
2023-04-26T07:54:00,mfh,79.23
2023-04-26T07:55:00,mfh,79.25
2023-04-26T07:56:00,mfh,79.25
2023-04-26T07:57:00,mfh,79.36
2023-04-26T07:58:00,mfh,79.22
2023-04-26T07:59:00,mfh,79.33
2023-04-26T08:00:00,mfh,78.96
2023-04-26T08:01:00,mfh,79.08
2023-04-26T08:02:00,mfh,84.00
2023-04-26T08:03:00,mfh,88.97
2023-04-26T08:04:00,mfh,89.21
2023-04-26T08:05:00,mfh,89.20
2023-04-26T08:06:00,mfh,89.24
2023-04-26T08:07:00,mfh,89.02
2023-04-26T08:08:00,mfh,88.88
2023-04-26T08:09:00,mfh,88.51
2023-04-26T08:10:00,mfh,88.52
2023-04-26T08:11:00,mfh,88.49
2023-04-26T08:12:00,mfh,88.40
2023-04-26T08:13:00,mfh,88.40
2023-04-26T08:14:00,mfh,88.40
2023-04-26T08:15:00,mfh,88.44
2023-04-26T08:16:00,mfh,88.37
2023-04-26T08:17:00,mfh,88.39
2023-04-26T08:18:00,mfh,88.23
2023-04-26T08:19:00,mfh,88.18
2023-04-26T08:20:00,mfh,88.11
2023-04-26T08:21:00,mfh,88.20
2023-04-26T08:22:00,mfh,88.19
2023-04-26T08:23:00,mfh,88.34
2023-04-26T08:24:00,mfh,88.10
2023-04-26T08:25:00,mfh,88.14
2023-04-26T08:26:00,mfh,88.12
2023-04-26T08:27:00,mfh,88.11
2023-04-26T08:28:00,mfh,88.13
2023-04-26T08:29:00,mfh,85.73
2023-04-26T08:30:00,mfh,85.43
2023-04-26T08:31:00,mfh,85.81
2023-04-26T08:32:00,mfh,85.50
2023-04-26T08:33:00,mfh,85.74
2023-04-26T08:34:00,mfh,85.68
2023-04-26T08:35:00,mfh,85.71
2023-04-26T08:36:00,mfh,85.78
2023-04-26T08:37:00,mfh,85.77
2023-04-26T08:38:00,mfh,85.82
2023-04-26T08:39:00,mfh,85.84
2023-04-26T08:40:00,mfh,85.93
2023-04-26T08:41:00,mfh,85.50
2023-04-26T08:42:00,mfh,85.89
2023-04-26T08:43:00,mfh,85.56
2023-04-26T08:44:00,mfh,88.50
2023-04-26T08:45:00,mfh,88.63
2023-04-26T08:46:00,mfh,88.61
2023-04-26T08:47:00,mfh,88.73
2023-04-26T08:48:00,mfh,88.54
2023-04-26T08:49:00,mfh,88.49
2023-04-26T08:50:00,mfh,88.53
2023-04-26T08:51:00,mfh,88.42
2023-04-26T08:52:00,mfh,88.40
2023-04-26T08:53:00,mfh,88.41
2023-04-26T08:54:00,mfh,88.41
2023-04-26T08:55:00,mfh,88.26
2023-04-26T08:56:00,mfh,88.63
2023-04-26T08:57:00,mfh,88.57
2023-04-26T08:58:00,mfh,87.50
2023-04-26T08:59:00,mfh,87.39
2023-04-26T09:00:00,mfh,87.45
2023-04-26T09:01:00,mfh,87.38
2023-04-26T09:02:00,mfh,84.83
2023-04-26T09:03:00,mfh,85.04
2023-04-26T09:04:00,mfh,85.03
2023-04-26T09:05:00,mfh,85.14
2023-04-26T09:06:00,mfh,84.86
2023-04-26T09:07:00,mfh,84.87
2023-04-26T09:08:00,mfh,85.39
2023-04-26T09:09:00,mfh,85.19
2023-04-26T09:10:00,mfh,85.10
2023-04-26T09:11:00,mfh,85.15
2023-04-26T09:12:00,mfh,85.30
2023-04-26T09:13:00,mfh,85.38
2023-04-26T09:14:00,mfh,85.46
2023-04-26T09:15:00,mfh,85.49
2023-04-26T09:16:00,mfh,85.04
2023-04-26T09:17:00,mfh,84.80
2023-04-26T09:18:00,mfh,84.82
2023-04-26T09:19:00,mfh,84.94
2023-04-26T09:20:00,mfh,84.83
2023-04-26T09:21:00,mfh,84.80
2023-04-26T09:22:00,mfh,84.47
2023-04-26T09:23:00,mfh,84.85
2023-04-26T09:24:00,mfh,84.85
2023-04-26T09:25:00,mfh,84.72
2023-04-26T09:26:00,mfh,84.54
2023-04-26T09:27:00,mfh,84.62
2023-04-26T09:28:00,mfh,84.56
2023-04-26T09:29:00,mfh,84.42
2023-04-26T09:30:00,mfh,84.34
2023-04-26T09:31:00,mfh,80.13
2023-04-26T09:32:00,mfh,79.34
2023-04-26T09:33:00,mfh,79.06
2023-04-26T09:34:00,mfh,79.47
2023-04-26T09:35:00,mfh,79.82
2023-04-26T09:36:00,mfh,86.36
2023-04-26T09:37:00,mfh,88.98
2023-04-26T09:38:00,mfh,88.97
2023-04-26T09:39:00,mfh,89.30
2023-04-26T09:40:00,mfh,89.01
2023-04-26T09:41:00,mfh,88.93
2023-04-26T09:42:00,mfh,88.86
2023-04-26T09:43:00,mfh,88.78
2023-04-26T09:44:00,mfh,88.68
2023-04-26T09:45:00,mfh,88.60
2023-04-26T09:46:00,mfh,88.49
2023-04-26T09:47:00,mfh,88.31
2023-04-26T09:48:00,mfh,88.37
2023-04-26T09:49:00,mfh,87.11
2023-04-26T09:50:00,mfh,87.17
2023-04-26T09:51:00,mfh,87.37
2023-04-26T09:52:00,mfh,87.20
2023-04-26T09:53:00,mfh,85.60
2023-04-26T09:54:00,mfh,85.65
2023-04-26T09:55:00,mfh,85.40
2023-04-26T09:56:00,mfh,85.64
2023-04-26T09:57:00,mfh,85.53
2023-04-26T09:58:00,mfh,85.52
2023-04-26T09:59:00,mfh,88.64
2023-04-26T10:00:00,mfh,86.37
2023-04-26T10:01:00,mfh,88.83
2023-04-26T10:02:00,mfh,88.70
2023-04-26T10:03:00,mfh,88.78
2023-04-26T10:04:00,mfh,88.70
2023-04-26T10:05:00,mfh,88.53
2023-04-26T10:06:00,mfh,88.56
2023-04-26T10:07:00,mfh,88.50
2023-04-26T10:08:00,mfh,88.40
2023-04-26T10:09:00,mfh,88.41
2023-04-26T10:10:00,mfh,88.46
2023-04-26T10:11:00,mfh,88.37
2023-04-26T10:12:00,mfh,88.34
2023-04-26T10:13:00,mfh,88.29
2023-04-26T10:14:00,mfh,88.12
2023-04-26T10:15:00,mfh,88.33
2023-04-26T10:16:00,mfh,88.47
2023-04-26T10:17:00,mfh,88.56
2023-04-26T10:18:00,mfh,88.45
2023-04-26T10:19:00,mfh,88.45
2023-04-26T10:20:00,mfh,88.39
2023-04-26T10:21:00,mfh,88.45
2023-04-26T10:22:00,mfh,88.45
2023-04-26T10:23:00,mfh,88.39
2023-04-26T10:24:00,mfh,88.39
2023-04-26T10:25:00,mfh,88.49
2023-04-26T10:26:00,mfh,88.31
2023-04-26T10:27:00,mfh,88.37
2023-04-26T10:28:00,mfh,88.43
2023-04-26T10:29:00,mfh,88.42
2023-04-26T10:30:00,mfh,88.39
2023-04-26T10:31:00,mfh,88.58
2023-04-26T10:32:00,mfh,88.53
2023-04-26T10:33:00,mfh,88.40
2023-04-26T10:34:00,mfh,88.34
2023-04-26T10:35:00,mfh,88.39
2023-04-26T10:36:00,mfh,88.36
2023-04-26T10:37:00,mfh,88.41
2023-04-26T10:38:00,mfh,88.44
2023-04-26T10:39:00,mfh,86.63
2023-04-26T10:40:00,mfh,86.09
2023-04-26T10:41:00,mfh,86.14
2023-04-26T10:42:00,mfh,88.43
2023-04-26T10:43:00,mfh,88.56
2023-04-26T10:44:00,mfh,88.48
2023-04-26T10:45:00,mfh,88.22
2023-04-26T10:46:00,mfh,88.19
2023-04-26T10:47:00,mfh,88.17
2023-04-26T10:48:00,mfh,88.19
2023-04-26T10:49:00,mfh,88.13
2023-04-26T10:50:00,mfh,88.15
2023-04-26T10:51:00,mfh,88.19
2023-04-26T10:52:00,mfh,88.39
2023-04-26T10:53:00,mfh,88.12
2023-04-26T10:54:00,mfh,88.15
2023-04-26T10:55:00,mfh,88.40
2023-04-26T10:56:00,mfh,88.36
2023-04-26T10:57:00,mfh,86.46
2023-04-26T10:58:00,mfh,86.21
2023-04-26T10:59:00,mfh,86.51
2023-04-26T11:00:00,mfh,86.27
2023-04-26T11:01:00,mfh,86.29
2023-04-26T11:02:00,mfh,86.43
2023-04-26T11:03:00,mfh,86.43
2023-04-26T11:04:00,mfh,86.69
2023-04-26T11:05:00,mfh,86.72
2023-04-26T11:06:00,mfh,86.70
2023-04-26T11:07:00,mfh,86.73
2023-04-26T11:08:00,mfh,86.66
2023-04-26T11:09:00,mfh,86.78
2023-04-26T11:10:00,mfh,86.93
2023-04-26T11:11:00,mfh,86.79
2023-04-26T11:12:00,mfh,86.87
2023-04-26T11:13:00,mfh,86.86
2023-04-26T11:14:00,mfh,86.93
2023-04-26T11:15:00,mfh,86.72
2023-04-26T11:16:00,mfh,87.31
2023-04-26T11:17:00,mfh,87.00
2023-04-26T11:18:00,mfh,87.39
2023-04-26T11:19:00,mfh,87.45
2023-04-26T11:20:00,mfh,87.18
2023-04-26T11:21:00,mfh,89.13
2023-04-26T11:22:00,mfh,89.36
2023-04-26T11:23:00,mfh,89.46
2023-04-26T11:24:00,mfh,89.18
2023-04-26T11:25:00,mfh,88.94
2023-04-26T11:26:00,mfh,88.97
2023-04-26T11:27:00,mfh,89.34
2023-04-26T11:28:00,mfh,88.81
2023-04-26T11:29:00,mfh,88.78
2023-04-26T11:30:00,mfh,88.89
2023-04-26T11:31:00,mfh,88.83
2023-04-26T11:32:00,mfh,88.75
2023-04-26T11:33:00,mfh,88.69
2023-04-26T11:34:00,mfh,86.57
2023-04-26T11:35:00,mfh,86.62
2023-04-26T11:36:00,mfh,86.61
2023-04-26T11:37:00,mfh,86.85
2023-04-26T11:38:00,mfh,86.37
2023-04-26T11:39:00,mfh,86.73
2023-04-26T11:40:00,mfh,86.70
2023-04-26T11:41:00,mfh,86.59
2023-04-26T11:42:00,mfh,86.75
2023-04-26T11:43:00,mfh,89.01
2023-04-26T11:44:00,mfh,89.24
2023-04-26T11:45:00,mfh,89.22
2023-04-26T11:46:00,mfh,89.29
2023-04-26T11:47:00,mfh,88.79
2023-04-26T11:48:00,mfh,88.71
2023-04-26T11:49:00,mfh,88.75
2023-04-26T11:50:00,mfh,88.92
2023-04-26T11:51:00,mfh,88.59
2023-04-26T11:52:00,mfh,88.56
2023-04-26T11:53:00,mfh,88.58
2023-04-26T11:54:00,mfh,86.53
2023-04-26T11:55:00,mfh,86.42
2023-04-26T11:56:00,mfh,86.41
2023-04-26T11:57:00,mfh,86.54
2023-04-26T11:58:00,mfh,86.98
2023-04-26T11:59:00,mfh,85.97
2023-04-26T12:00:00,mfh,86.29
2023-04-26T12:01:00,mfh,86.11
2023-04-26T12:02:00,mfh,86.15
2023-04-26T12:03:00,mfh,86.02
2023-04-26T12:04:00,mfh,85.94
2023-04-26T12:05:00,mfh,84.55
2023-04-26T12:06:00,mfh,84.68
2023-04-26T12:07:00,mfh,83.10
2023-04-26T12:08:00,mfh,82.77
2023-04-26T12:09:00,mfh,82.22
2023-04-26T12:10:00,mfh,82.42
2023-04-26T12:11:00,mfh,82.87
2023-04-26T12:12:00,mfh,82.84
2023-04-26T12:13:00,mfh,82.92
2023-04-26T12:14:00,mfh,83.22
2023-04-26T12:15:00,mfh,83.35
2023-04-26T12:16:00,mfh,83.33
2023-04-26T12:17:00,mfh,81.94
2023-04-26T12:18:00,mfh,82.50
2023-04-26T12:19:00,mfh,81.75
2023-04-26T12:20:00,mfh,77.77
2023-04-26T12:21:00,mfh,78.97
2023-04-26T12:22:00,mfh,77.91
2023-04-26T12:23:00,mfh,77.83
2023-04-26T12:24:00,mfh,78.37
2023-04-26T12:25:00,mfh,77.95
2023-04-26T12:26:00,mfh,77.76
2023-04-26T12:27:00,mfh,75.38
2023-04-26T12:28:00,mfh,74.38
2023-04-26T12:29:00,mfh,74.72
2023-04-26T12:30:00,mfh,75.26
2023-04-26T12:31:00,mfh,76.53
2023-04-26T12:32:00,mfh,76.28
2023-04-26T12:33:00,mfh,76.29
2023-04-26T12:34:00,mfh,76.37
2023-04-26T12:35:00,mfh,76.32
2023-04-26T12:36:00,mfh,76.97
2023-04-26T12:37:00,mfh,76.38
2023-04-26T12:38:00,mfh,76.17
2023-04-26T12:39:00,mfh,76.20
2023-04-26T12:40:00,mfh,75.76
2023-04-26T12:41:00,mfh,76.28
2023-04-26T12:42:00,mfh,76.02
2023-04-26T12:43:00,mfh,76.32
2023-04-26T12:44:00,mfh,76.01
2023-04-26T12:45:00,mfh,76.05
2023-04-26T12:46:00,mfh,76.06
2023-04-26T12:47:00,mfh,76.50
2023-04-26T12:48:00,mfh,76.99
2023-04-26T12:49:00,mfh,76.44
2023-04-26T12:50:00,mfh,86.69
2023-04-26T12:51:00,mfh,87.16
2023-04-26T12:52:00,mfh,86.96
2023-04-26T12:53:00,mfh,86.78
2023-04-26T12:54:00,mfh,86.60
2023-04-26T12:55:00,mfh,86.44
2023-04-26T12:56:00,mfh,86.56
2023-04-26T12:57:00,mfh,86.24
2023-04-26T12:58:00,mfh,86.14
2023-04-26T12:59:00,mfh,86.05
2023-04-26T13:00:00,mfh,86.09
2023-04-26T13:01:00,mfh,86.37
2023-04-26T13:02:00,mfh,84.25
2023-04-26T13:03:00,mfh,84.34
2023-04-26T13:04:00,mfh,84.53
2023-04-26T13:05:00,mfh,84.62
2023-04-26T13:06:00,mfh,84.68
2023-04-26T13:07:00,mfh,81.46
2023-04-26T13:08:00,mfh,76.46
2023-04-26T13:09:00,mfh,76.98
2023-04-26T13:10:00,mfh,76.35
2023-04-26T13:11:00,mfh,76.37
2023-04-26T13:12:00,mfh,75.86
2023-04-26T13:13:00,mfh,75.98
2023-04-26T13:14:00,mfh,86.92
2023-04-26T13:15:00,mfh,87.12
2023-04-26T13:16:00,mfh,87.05
2023-04-26T13:17:00,mfh,89.01
2023-04-26T13:18:00,mfh,88.91